Starlink 30605

operational
NORAD ID: 58101 Int'l Des: 2023-161 Owner: SPXS Country: US Constellation: starlink
LEOCIRCULAR

关于 Starlink 30605

正在加载描述...

实时位置

正在加载3D地球...

即将过境

高度历史

Altitude vs Time

uPlot chart will show altitude changes over time

两行轨道根数

1 58101U 23161E 25347.60765398 .00004778 00000-0 17334-3 0 9990
2 58101 53.1598 205.2643 0001166 80.9732 279.1400 15.30200353121248
Epoch: Dec 13, 2025 • Age: 17 hours

当前状态

高度 480.3 km
速度 7.63 km/s
星下点 -17.31°S, 154.77°W
发射日期 Oct 21, 2023
运行时间 2.1 years
类型 internet

技术详情

分类 Payload
质量 730.00 kg
干质量 700.00 kg
总质量 730.00 kg
长度 0.30 m
直径 4.10 m
跨度 29.00 m
形状 Box + pan
制造商 SPXS
平台类型 Starlink V2M
阶段状态 In Orbit
所有者/国家 SPXS/US

大型星座

Loading constellations...